When you browse on this site, cookies collect data to enhance your experience and personalize the content and advertising you see.
Visit our Privacy Policy to learn more. By continuing to use the site, you agree to this use of cookies and data.
  • In France
  • List of Countries
  • For 7 days
  • Water Temperature
  • Satellite Maps
  • Weather Map
  • Weather Widgets
  • user-avatar
    Login

    Hourly Weather Laszkar Gah

    Today, 18 November, Sunday

    Time Temperature Precipitation Wind Pressure Humidity
    00:00 +18°C° 0 mm 3 mps 695 mmHg 38%
    01:00 +18°C° 0 mm 3 mps 695 mmHg 40%
    02:00 +18°C° 0 mm 3 mps 695 mmHg 42%
    03:00 +17°C° 0 mm 3 mps 694 mmHg 44%
    04:00 +17°C° 0 mm 3 mps 694 mmHg 46%
    05:00 +17°C° 0 mm 3 mps 694 mmHg 46%
    06:00 +17°C° 0 mm 3 mps 695 mmHg 46%
    07:00 +17°C° 0 mm 2 mps 695 mmHg 47%
    08:00 +19°C° 0 mm 3 mps 695 mmHg 42%
    09:00 +21°C° 0 mm 3 mps 696 mmHg 36%
    10:00 +23°C° 0 mm 4 mps 697 mmHg 30%
    11:00 +25°C° 0 mm 5 mps 696 mmHg 27%
    12:00 +24°C° 0 mm 6 mps 696 mmHg 24%
    13:00 +26°C° 0 mm 7 mps 696 mmHg 20%
    14:00 +26°C° 0 mm 6 mps 695 mmHg 21%
    15:00 +24°C° 0 mm 6 mps 695 mmHg 21%
    16:00 +23°C° 0 mm 6 mps 695 mmHg 21%
    17:00 +22°C° 0 mm 5 mps 695 mmHg 24%
    18:00 +20°C° 0 mm 5 mps 695 mmHg 26%
    19:00 +19°C° 0 mm 4 mps 695 mmHg 29%
    20:00 +18°C° 0 mm 4 mps 695 mmHg 31%
    21:00 +17°C° 0 mm 3 mps 695 mmHg 33%
    22:00 +17°C° 0 mm 3 mps 695 mmHg 35%
    23:00 +16°C° 0 mm 3 mps 695 mmHg 38%

    Tomorrow, 19 November, Monday

    Time Temperature Precipitation Wind Pressure Humidity
    00:00 +15°C° 0 mm 2 mps 695 mmHg 40%
    01:00 +15°C° 0 mm 2 mps 695 mmHg 42%
    02:00 +14°C° 0 mm 2 mps 695 mmHg 45%
    03:00 +14°C° 0 mm 2 mps 695 mmHg 47%
    04:00 +13°C° 0 mm 1 mps 695 mmHg 49%
    05:00 +13°C° 0 mm 1 mps 695 mmHg 49%
    06:00 +13°C° 0 mm 1 mps 696 mmHg 49%
    07:00 +13°C° 0 mm 1 mps 696 mmHg 48%
    08:00 +15°C° 0 mm 1 mps 697 mmHg 43%
    09:00 +18°C° 0 mm 1 mps 698 mmHg 38%
    10:00 +20°C° 0 mm 1 mps 699 mmHg 33%
    11:00 +21°C° 0 mm 1 mps 698 mmHg 30%
    12:00 +22°C° 0 mm 1 mps 698 mmHg 27%
    13:00 +23°C° 0 mm 1 mps 698 mmHg 24%
    14:00 +23°C° 0 mm 1 mps 698 mmHg 24%
    15:00 +23°C° 0 mm 1 mps 698 mmHg 23%
    16:00 +23°C° 0 mm 1 mps 697 mmHg 23%
    17:00 +21°C° 0 mm 1 mps 697 mmHg 26%
    18:00 +19°C° 0 mm 1 mps 697 mmHg 29%
    19:00 +16°C° 0 mm 0 mps 697 mmHg 32%
    20:00 +16°C° 0 mm 1 mps 697 mmHg 33%
    21:00 +16°C° 0 mm 1 mps 698 mmHg 33%
    22:00 +16°C° 0 mm 2 mps 698 mmHg 33%
    23:00 +16°C° 0 mm 2 mps 698 mmHg 33%

    Day after tomorrow, 20 November, Tuesday

    Time Temperature Precipitation Wind Pressure Humidity
    00:00 +16°C° 0 mm 2 mps 698 mmHg 33%
    01:00 +16°C° 0 mm 2 mps 698 mmHg 34%
    02:00 +14°C° 0 mm 3 mps 697 mmHg 34%
    03:00 +14°C° 0 mm 3 mps 697 mmHg 34%
    04:00 +14°C° 0 mm 3 mps 697 mmHg 34%
    05:00 +14°C° 0 mm 3 mps 697 mmHg 34%
    06:00 +14°C° 0 mm 3 mps 698 mmHg 33%
    07:00 +14°C° 0 mm 3 mps 698 mmHg 32%
    08:00 +17°C° 0 mm 3 mps 699 mmHg 28%
    09:00 +19°C° 0 mm 3 mps 699 mmHg 25%
    10:00 +21°C° 0 mm 3 mps 700 mmHg 21%
    11:00 +22°C° 0 mm 3 mps 699 mmHg 20%
    12:00 +24°C° 0 mm 2 mps 699 mmHg 20%
    13:00 +25°C° 0 mm 1 mps 698 mmHg 19%
    14:00 +25°C° 0 mm 2 mps 698 mmHg 19%
    15:00 +25°C° 0 mm 2 mps 697 mmHg 20%
    16:00 +24°C° 0 mm 2 mps 697 mmHg 20%
    17:00 +23°C° 0 mm 2 mps 697 mmHg 21%
    18:00 +21°C° 0 mm 3 mps 697 mmHg 22%
    19:00 +20°C° 0 mm 3 mps 697 mmHg 23%
    20:00 +20°C° 0 mm 4 mps 697 mmHg 24%
    21:00 +19°C° 0 mm 4 mps 697 mmHg 24%
    22:00 +19°C° 0 mm 4 mps 697 mmHg 25%
    23:00 +18°C° 0 mm 4 mps 696 mmHg 25%

    21 November, Wednesday

    Time Temperature Precipitation Wind Pressure Humidity
    00:00 +18°C° 0 mm 4 mps 696 mmHg 26%
    01:00 +18°C° 0 mm 3 mps 696 mmHg 26%
    02:00 +18°C° 0.1 mm 4 mps 696 mmHg 27%
    03:00 +17°C° 0.1 mm 5 mps 695 mmHg 28%
    04:00 +17°C° 0.1 mm 5 mps 695 mmHg 29%
    05:00 +17°C° 0 mm 6 mps 696 mmHg 30%
    06:00 +17°C° 0 mm 6 mps 696 mmHg 31%
    07:00 +17°C° 0 mm 6 mps 696 mmHg 32%
    08:00 +19°C° 0.1 mm 6 mps 696 mmHg 31%
    09:00 +21°C° 0.1 mm 5 mps 697 mmHg 31%
    10:00 +22°C° 0.1 mm 5 mps 697 mmHg 31%
    11:00 +23°C° 0 mm 5 mps 696 mmHg 30%
    12:00 +25°C° 0 mm 5 mps 696 mmHg 29%
    13:00 +25°C° 0 mm 4 mps 695 mmHg 28%
    14:00 +23°C° 0.2 mm 4 mps 695 mmHg 31%
    15:00 +23°C° 0.2 mm 4 mps 694 mmHg 33%
    16:00 +22°C° 0.2 mm 4 mps 694 mmHg 36%
    17:00 +20°C° 0.5 mm 4 mps 694 mmHg 43%
    18:00 +19°C° 0.5 mm 5 mps 694 mmHg 49%
    19:00 +17°C° 0.5 mm 5 mps 695 mmHg 56%
    20:00 +16°C° 0.5 mm 5 mps 695 mmHg 58%
    21:00 +16°C° 0.5 mm 5 mps 695 mmHg 61%
    22:00 +16°C° 0.5 mm 5 mps 695 mmHg 64%
    23:00 +15°C° 0.2 mm 4 mps 695 mmHg 66%

    22 November, Thursday

    Time Temperature Precipitation Wind Pressure Humidity
    00:00 +16°C° 0.2 mm 3 mps 695 mmHg 68%
    01:00 +16°C° 0.2 mm 3 mps 695 mmHg 70%
    02:00 +15°C° 0.2 mm 2 mps 695 mmHg 71%
    03:00 +15°C° 0.2 mm 2 mps 695 mmHg 73%
    04:00 +15°C° 0.2 mm 2 mps 695 mmHg 75%
    05:00 +15°C° 0.1 mm 2 mps 695 mmHg 75%
    06:00 +15°C° 0.1 mm 2 mps 696 mmHg 74%
    07:00 +15°C° 0.1 mm 2 mps 696 mmHg 74%
    08:00 +16°C° 0 mm 2 mps 697 mmHg 68%
    09:00 +17°C° 0 mm 2 mps 698 mmHg 62%
    10:00 +19°C° 0 mm 2 mps 698 mmHg 56%
    11:00 +21°C° 0 mm 1 mps 698 mmHg 51%
    12:00 +22°C° 0 mm 1 mps 697 mmHg 46%
    13:00 +20°C° 0 mm 0 mps 697 mmHg 41%
    14:00 +23°C° 0 mm 1 mps 697 mmHg 39%
    15:00 +23°C° 0 mm 1 mps 697 mmHg 38%
    16:00 +23°C° 0 mm 1 mps 697 mmHg 36%
    17:00 +22°C° 0 mm 1 mps 697 mmHg 39%
    18:00 +21°C° 0 mm 1 mps 697 mmHg 42%
    19:00 +20°C° 0 mm 1 mps 698 mmHg 45%
    20:00 +20°C° 0 mm 1 mps 698 mmHg 45%
    21:00 +18°C° 0 mm 2 mps 698 mmHg 46%
    22:00 +18°C° 0 mm 2 mps 698 mmHg 46%
    23:00 +18°C° 0 mm 2 mps 698 mmHg 47%

    23 November, Friday

    Time Temperature Precipitation Wind Pressure Humidity
    00:00 +17°C° 0 mm 3 mps 698 mmHg 48%
    01:00 +17°C° 0 mm 3 mps 698 mmHg 49%
    02:00 +17°C° 0 mm 3 mps 698 mmHg 49%
    03:00 +17°C° 0 mm 4 mps 698 mmHg 50%
    04:00 +15°C° 0 mm 4 mps 698 mmHg 50%
    05:00 +15°C° 0 mm 4 mps 698 mmHg 50%
    06:00 +15°C° 0 mm 4 mps 698 mmHg 49%
    07:00 +15°C° 0 mm 4 mps 699 mmHg 49%
    08:00 +17°C° 0 mm 5 mps 699 mmHg 43%
    09:00 +20°C° 0 mm 5 mps 700 mmHg 38%
    10:00 +22°C° 0 mm 5 mps 700 mmHg 32%
    11:00 +23°C° 0 mm 5 mps 699 mmHg 30%
    12:00 +25°C° 0 mm 4 mps 699 mmHg 28%
    13:00 +26°C° 0 mm 4 mps 698 mmHg 25%
    14:00 +26°C° 0 mm 3 mps 698 mmHg 25%
    15:00 +26°C° 0 mm 3 mps 698 mmHg 25%
    16:00 +26°C° 0 mm 3 mps 698 mmHg 25%
    17:00 +25°C° 0 mm 3 mps 698 mmHg 27%
    18:00 +22°C° 0 mm 4 mps 698 mmHg 29%
    19:00 +21°C° 0 mm 5 mps 698 mmHg 30%
    20:00 +21°C° 0 mm 5 mps 698 mmHg 31%
    21:00 +20°C° 0 mm 4 mps 698 mmHg 32%
    22:00 +20°C° 0 mm 4 mps 698 mmHg 33%
    23:00 +20°C° 0 mm 4 mps 698 mmHg 34%
    Show more